Other Surface Observations
Issued by NWS

Home | Current Version | Previous Version | Text Only | Print | Product List | Glossary On
Versions: 1 2 3 4 5 6 7 8 9 10 11 12 13 14 15 16 17 18 19 20 21 22 23 24 25 26 27 28 29 30 31 32 33 34 35 36 37 38 39 40 41 42 43 44 45 46 47 48 49 50
000
SXUS52 KTAE 270718
OSOTAE
OSOTAE
North Florida/South Alabama/Southwest Georgia Weather Roundup
National Weather Service Tallahassee Florida
300 AM EDT FRI MAR 27 2015

Note: "fair" indicates few or no clouds below 12,000 feet with no
significant weather and/or obstructions to visibility.

!FLZ017-115-028-034-025-270800
...North Florida...

CITY           SKY/WX    TMP DP  RH WIND       PRES   REMARKS
TALLAHASSEE    CLOUDY    65  63  93 SE7       29.81F
APALACHICOLA   CLOUDY    67  64  90 CALM      29.82F
PERRY          CLOUDY    65  65  97 SW5       29.85F
CROSS CITY       N/A     67  64  90 SW8G20    29.82F
JACKSONVILLE   LGT RAIN  65  64  97 SW9       29.81F
$$

!FLZ112-006-005-002-011-270800
...Florida Panhandle...

CITY           SKY/WX    TMP DP  RH WIND       PRES   REMARKS
MARIANNA       CLOUDY    63  63 100 W7        29.80F FOG
BONIFAY        CLOUDY    64  63  96 CALM      29.81F FOG
PANAMA CITY NW CLOUDY    65  64  97 SW5       29.80F
TYNDALL AFB    DRIZZLE   68  66  94 W14       29.81F
TYND DRONE APT PTSUNNY   69  67  96 SW5       29.81F
DE FUNIAK SPR  NOT AVBL
EGLIN AFB      PTCLDY    66  64  92 W7        29.81F
DESTIN         CLOUDY    69  65  86 VRB5      29.81F
HURLBURT       PTCLDY    66  59  77 W6        29.81S
CRESTVIEW      PTCLDY    64  63  96 W8        29.83S
PENSACOLA      CLOUDY    65  62  90 W10       29.82S
$$

!ALZ063-066-270800
...South Alabama...

CITY           SKY/WX    TMP DP  RH WIND       PRES   REMARKS
DOTHAN         CLOUDY    63  62  97 SW8       29.83F
OZARK CAIRNS   CLOUDY    64  60  88 SW7       29.79F
FT RUCKER HELI CLOUDY    64  62  93 SW3       29.78F
RUCKER HELI 3  MOCLDY    63  63 100 W6        29.80F
RUCKER HELI 2  CLOUDY    63  62  97 SW5       29.77F
FLORALA APT    MOCLDY    63  61  94 VRB5      29.82F
ANDALUSIA      CLOUDY    66  61  84 W5        29.79F
TROY           MOCLDY    64  61  90 W6        29.78F
EUFALA         MOCLDY    64  61  90 SW5       29.76F
MOBILE         CLOUDY    59  58  96 NW13G20   29.88R FOG
$$

!GAZ120>161-270800
...Southwest and South Central Georgia...

CITY           SKY/WX    TMP DP  RH WIND       PRES   REMARKS
THOMASVILLE    CLOUDY    63 N/A N/A S5        29.82F
BAINBRIDGE     CLOUDY    64  63  94 SW5       29.81F
MOODY AFB      CLOUDY    63  61  94 S8        29.80R
VALDOSTA       CLOUDY    63  62  97 S5        29.82S
MOULTRIE       CLOUDY    63 N/A N/A S5        29.81F HAZE
BLAKELY        CLOUDY    63  63 100 SW3       29.80F
ALBANY         CLOUDY    63  61  93 W5        29.82R
TIFTON         CLOUDY    62  62  99 SW6       29.80F
FITZGERALD     CLOUDY    64  61  91 SW7       29.81F
CORDELE        CLOUDY    65  62  91 SW7       29.79S
AMERICUS       CLOUDY    63  63 100 SW8       29.80R
HOMERVILLE     FAIR      63  63 100 SW7       29.83R
$$

!GMZ750-755-770-775-270800
...Coastal and Buoy Obs...

STATION/POSITION TIME  TEMP    WIND        PRES    VSBY  WAVE
                       AIR SEA DIR/SP/G                  HT/PER
                 (UTC) (F)     (DEG/KT/KT) (MB)    (MI)  (FT/S)
KEATON BEACH     0700   68     250/ 11/ 12 1010.5R
CEDAR KEY        0700   67     190/ 17/ 20 1009.8F
C TOWER          0700   68     220/ 18/ 24 1009.3R
APALACHICOLA BUO 0650   70 71  180/ 16/ 19 1009.9F         2/ 5
PANAMA CITY BUOY 0650   73 75  230/ 17/ 21 1010.7R         4/ 4
MOBILE BUOY      0650   69 73  280/ 19/ 23 1011.1F         4/ 4
ORANGE BCH AL BU 0650   68 68  280/ 14/ 19 1009.3F         4/ 6
$$



USA.gov is the U.S. government's official web portal to all federal, state and local government web resources and services.